This is the latest recevied weather packets stored in our database for station/object W3EJE-13. If no packets are shown the sender has not sent any weather packets the latest 10 day(s).
| Time | Temp. | Humidity | Pressure | Rain* | Wind** | Luminosity | Snow |
|---|---|---|---|---|---|---|---|
| 1777579586 | 6.67° C | 90% | 1013.9 hPa | 0 mm | - | 39 W/m² | - |
| 1777579280 | 6.67° C | 90% | 1013.9 hPa | 0 mm | - | 63 W/m² | - |
| 1777578976 | 6.67° C | 90% | 1014.1 hPa | 0 mm | - | 140 W/m² | - |
| 1777578671 | 6.67° C | 90% | 1013.8 hPa | 0 mm | - | 78 W/m² | - |
| 1777578370 | 7.22° C | 91% | 1013.8 hPa | 0 mm | - | 103 W/m² | - |
| 1777578067 | 6.67° C | 91% | 1013.8 hPa | 0 mm | - | 127 W/m² | - |
| 1777577762 | 6.67° C | 91% | 1013.9 hPa | 0 mm | - | 157 W/m² | - |
| 1777577458 | 7.22° C | 92% | 1013.7 hPa | 0 mm | - | 117 W/m² | - |
| 1777577156 | 6.67° C | 93% | 1013.7 hPa | 0 mm | - | 223 W/m² | - |
| 1777576852 | 6.67° C | 93% | 1013.8 hPa | 0 mm | - | 127 W/m² | - |
| 1777576551 | 6.67° C | 93% | 1013.5 hPa | 0 mm | - | 133 W/m² | - |
| 1777576247 | 6.67° C | 92% | 1013.7 hPa | 0 mm | - | 86 W/m² | - |
| 1777575944 | 6.67° C | 91% | 1013.5 hPa | 0 mm | - | 69 W/m² | - |
| 1777575640 | 7.22° C | 91% | 1013.4 hPa | 0 mm | - | 91 W/m² | - |
| 1777575336 | 7.22° C | 92% | 1013.3 hPa | 0 mm | - | 140 W/m² | - |
| 1777575032 | 7.22° C | 92% | 1013.2 hPa | 0 mm | - | 140 W/m² | - |
| 1777574728 | 7.22° C | 93% | 1013.2 hPa | 0 mm | - | 303 W/m² | - |
| 1777574426 | 7.22° C | 95% | 1013.1 hPa | 0 mm | - | 259 W/m² | - |
| 1777574121 | 7.22° C | 93% | 1013.1 hPa | 0 mm | - | 138 W/m² | - |
| 1777573817 | 7.78° C | 91% | 1012.9 hPa | 0 mm | - | 117 W/m² | - |
| 1777573512 | 7.78° C | 91% | 1013 hPa | 0 mm | - | 170 W/m² | - |
| 1777573209 | 8.89° C | 91% | 1012.9 hPa | 0 mm | - | 210 W/m² | - |
| 1777572905 | 8.89° C | 92% | 1012.8 hPa | 0 mm | - | 955 W/m² | - |
| 1777572601 | 8.33° C | 92% | 1012.8 hPa | 0 mm | - | 783 W/m² | - |
| 1777572301 | 8.33° C | 93% | 1012.8 hPa | 0 mm | - | 170 W/m² | - |
* Rain latest hour (hover to see other rain measurements)
** Current wind speed in m/s (hover to see current wind gust speed)